Location: Carrizal
(9.8472°N, 67.3428°W)
Time: 19:54:30
(UTC+00:00)

DELTA 2 DEB (DPAF) - Pass Details

Date: 13 April 2024
Orbit: 597 x 601 km, 98.4° (Epoch: 22 May)

Event Time Altitude Azimuth Distance (km) Brightness Sun altitude
Rises 23:44:51 0° 14° (NNE) 2,829 7.4 -16.5°
Reaches altitude 10° 23:47:01 10° 15° (NNE) 1,928 6.6 -17.1°
Maximum altitude 23:51:11 78° 101° (E) 613 3.8 -18.1°
Drops below altitude 10° 23:55:23 10° 189° (S) 1,934 6.5 -19.1°
Sets 23:57:33 0° 190° (S) 2,838 7.4 -19.6°
